Simultaneous Nadir Overpasses (SNOs) Predictions

Prediction of SNOs between GOES-15 and LANDSAT-8 Satellite Orbit:

Table of predicted SNOs for the next 14.0 days since TLE Epoch: 2/26/2022
Index Date Time (GOES-15) GOES-15 Lat,Lon LANDSAT-8 Lat,Lon Distance(km) Time Diff (sec)
1 02/27/2022 06:42:25 -0.00,-127.56 0.05,-127.19 41.73 80
2 03/01/2022 06:30:14 -0.01,-127.48 0.71,-124.24 368.55 80
3 03/01/2022 18:48:49 0.00,-127.50 0.41,-129.39 215.13 80
4 03/03/2022 18:39:17 0.01,-127.42 -0.20,-126.43 111.95 80
5 03/04/2022 06:58:01 -0.00,-127.35 -0.92,-131.62 486.05 80
6 03/05/2022 18:27:05 0.01,-127.34 -0.81,-123.48 438.92 80
7 03/06/2022 06:45:49 -0.01,-127.27 -0.30,-128.67 159.18 80
8 03/08/2022 06:36:17 -0.01,-127.18 0.32,-125.71 167.19 80
9 03/08/2022 18:54:52 0.00,-127.20 0.80,-130.86 416.89 80
10 03/10/2022 06:24:05 -0.01,-127.08 0.94,-122.75 492.95 80
11 03/10/2022 18:42:40 -0.00,-127.10 0.18,-127.90 91.27 80
